Hilo, HI

8:57 PM HST on February 20, 2017 (GMT -1000)
Hilo International

Weather History for PHTO - October, 2013

Change the Weather History Date:

Tuesday, October 8, 2013

  Actual Average Record
Temperature  
Mean Temperature 75 °F 76 °F  
Max Temperature 80 °F 83 °F 91 °F (1979)
Min Temperature 69 °F 69 °F 63 °F (1958)
Degree Days  
Heating Degree Days 0 0  
Month to date heating degree days 0 0  
Since 1 July heating degree days 0 0  
Cooling Degree Days 10 11  
Month to date cooling degree days 93 88  
Year to date cooling degree days 2689 2496  
Growing Degree Days 24 (Base 50)    
Moisture  
Dew Point 70 °F    
Average Humidity 82    
Maximum Humidity 93    
Minimum Humidity 71    
Precipitation  
Precipitation 0.65 in 0.30 in 1.88 in (1998)
Month to date precipitation 1.52 2.35  
Year to date precipitation 70.04 92.23  
Snow  
Snow 0.00 in - - ()
Month to date snowfall 0.0  
Since 1 July snowfall 0.0  
Since 1 September snowfall 0.0  
Snow Depth 0.00 in    
Sea Level Pressure  
Sea Level Pressure 30.05 in    
Wind  
Wind Speed 6 mph (WSW)    
Max Wind Speed 16 mph    
Max Gust Speed 20 mph    
Visibility 8 miles    
Events Rain    
T = Trace of Precipitation, MM = Missing Value Source: NWS Daily Summary

Daily Weather History Graph

Daily Weather History Graph

Search for Another Location

Airport or City:

Trip Planner

Search our weather history database for the weather conditions in past years. The results will help you decide how hot, cold, wet, or windy it might be!

Date:

Astronomy

Oct. 08, 2013 Rise Set
Actual Time 6:12 AM HST 6:01 PM HST
Civil Twilight 5:50 AM HST 6:24 PM HST
Nautical Twilight 5:25 AM HST 6:49 PM HST
Astronomical Twilight 4:59 AM HST 7:15 PM HST
Moon 9:49 AM HST (10/8) 9:18 PM HST (10/8)
Length of Visible Light 12h 33m
Length of Day
11h 49m
Waxing Crescent, 18% of the Moon is Illuminated
Oct 8
Waxing Crescent
Oct 11
First Quarter
Oct 18
Full
Oct 26
Last Quarter
Nov 3
New

Hourly Weather History & Observations

Time (HST) Temp. Dew Point Humidity Pressure Visibility Wind Dir Wind Speed Gust Speed Precip Events Conditions
12:53 AM 70.0 °F 63.0 °F 78% 30.05 in 10.0 mi WSW 6.9 mph - 0.00 in   Overcast
1:53 AM 69.1 °F 64.9 °F 87% 30.04 in 10.0 mi WSW 6.9 mph - 0.01 in   Overcast
2:53 AM 70.0 °F 66.0 °F 87% 30.03 in 10.0 mi SW 4.6 mph - 0.00 in   Overcast
3:53 AM 70.0 °F 66.0 °F 87% 30.03 in 10.0 mi WSW 6.9 mph - 0.02 in   Overcast
4:07 AM 70.0 °F 66.9 °F 90% 30.03 in 10.0 mi SSW 5.8 mph - N/A   Overcast
4:26 AM 70.0 °F 66.9 °F 90% 30.03 in 10.0 mi WSW 6.9 mph - N/A   Overcast
4:53 AM 70.0 °F 66.9 °F 90% 30.03 in 10.0 mi WSW 6.9 mph - N/A   Overcast
5:03 AM 70.0 °F 66.0 °F 87% 30.04 in 10.0 mi WSW 6.9 mph - N/A   Overcast
5:53 AM 70.0 °F 66.9 °F 90% 30.04 in 10.0 mi WSW 5.8 mph - N/A   Overcast
6:53 AM 71.1 °F 68.0 °F 90% 30.06 in 10.0 mi SW 5.8 mph - N/A   Scattered Clouds
7:27 AM 73.0 °F 69.1 °F 87% 30.07 in 10.0 mi WSW 4.6 mph - N/A   Overcast
7:53 AM 73.9 °F 69.1 °F 85% 30.07 in 10.0 mi West 3.5 mph - N/A   Mostly Cloudy
8:41 AM 73.9 °F 71.1 °F 91% 30.09 in 2.5 mi Variable 3.5 mph - 0.00 in Rain Heavy Rain
8:53 AM 73.9 °F 71.1 °F 91% 30.09 in 3.0 mi SE 4.6 mph - 0.08 in Rain Light Rain
9:07 AM 73.0 °F 70.0 °F 90% 30.10 in 9.0 mi South 8.1 mph - 0.01 in Rain Light Rain
9:25 AM 73.0 °F 70.0 °F 90% 30.10 in 1.5 mi South 4.6 mph - 0.04 in Rain Heavy Rain
9:36 AM 72.0 °F 70.0 °F 93% 30.10 in 1.5 mi SW 9.2 mph - 0.10 in Rain Heavy Rain
9:45 AM 73.0 °F 71.1 °F 93% 30.10 in 5.0 mi WSW 9.2 mph - 0.13 in Rain Light Rain
9:53 AM 73.0 °F 72.0 °F 96% 30.09 in 10.0 mi WSW 10.4 mph - 0.14 in Rain Light Rain
10:53 AM 79.0 °F 71.1 °F 77% 30.07 in 10.0 mi West 6.9 mph - 0.00 in   Mostly Cloudy
11:53 AM 73.0 °F 72.0 °F 96% 30.06 in 10.0 mi South 5.8 mph - 0.00 in Rain Light Rain
12:53 PM 77.0 °F 71.1 °F 82% 30.04 in 10.0 mi West 8.1 mph - 0.00 in   Mostly Cloudy
1:53 PM 79.0 °F 68.0 °F 69% 30.01 in 10.0 mi Variable 4.6 mph - N/A   Mostly Cloudy
2:00 PM 75.0 °F 72.0 °F 90% 30.02 in 2.0 mi ENE 16.1 mph - 0.00 in Rain Light Rain
2:15 PM 73.0 °F 72.0 °F 96% 30.03 in 0.8 mi ENE 4.6 mph - 0.18 in Rain Heavy Rain
2:26 PM 73.0 °F 72.0 °F 96% 30.02 in 10.0 mi Variable 3.5 mph - 0.39 in Rain Light Rain
2:51 PM 73.4 °F 71.6 °F 94% 30.02 in 10.0 mi WNW 3.5 mph - 0.39 in   Overcast
2:53 PM 73.0 °F 72.0 °F 96% 30.02 in 10.0 mi West 4.6 mph - 0.39 in   Overcast
3:53 PM 75.0 °F 72.0 °F 90% 30.02 in 10.0 mi West 6.9 mph - 0.01 in   Mostly Cloudy
4:03 PM 75.0 °F 71.1 °F 87% 30.02 in 10.0 mi WNW 4.6 mph - N/A   Overcast
4:31 PM 75.9 °F 72.0 °F 87% 30.02 in 10.0 mi NW 4.6 mph - N/A   Overcast
4:46 PM 75.9 °F 71.1 °F 85% 30.02 in 10.0 mi North - - 0.00 in Rain Light Rain
4:53 PM 73.9 °F 72.0 °F 93% 30.02 in 2.5 mi East 3.5 mph - 0.01 in Rain Heavy Rain
4:59 PM 73.9 °F 72.0 °F 93% 30.02 in 5.0 mi Calm Calm - 0.03 in Rain Light Rain
5:53 PM 73.0 °F 72.0 °F 96% 30.04 in 5.0 mi SW 5.8 mph - 0.04 in Rain Light Rain
6:43 PM 73.0 °F 71.1 °F 93% 30.05 in 9.0 mi SSW 4.6 mph - 0.00 in Rain Light Rain
6:53 PM 73.0 °F 71.1 °F 93% 30.05 in 6.0 mi SSW 3.5 mph - 0.01 in Rain Light Rain
7:21 PM 72.0 °F 70.0 °F 93% 30.06 in 10.0 mi WSW 8.1 mph - 0.01 in Rain Light Rain
7:53 PM 72.0 °F 70.0 °F 93% 30.06 in 10.0 mi WSW 5.8 mph - 0.01 in   Overcast
8:53 PM 73.0 °F 70.0 °F 90% 30.07 in 10.0 mi WSW 5.8 mph - N/A   Overcast
9:16 PM 72.0 °F 69.1 °F 91% 30.08 in 10.0 mi South 4.6 mph - N/A   Overcast
9:53 PM 71.1 °F 69.1 °F 93% 30.08 in 10.0 mi West 9.2 mph - 0.04 in Rain Light Rain
10:53 PM 71.1 °F 68.0 °F 90% 30.06 in 10.0 mi WNW 5.8 mph - 0.00 in   Overcast
11:53 PM 72.0 °F 66.9 °F 84% 30.05 in 10.0 mi WSW 5.8 mph - N/A   Overcast